This is the latest recevied weather packets stored in our database for station/object W5ZYX. If no packets are shown the sender has not sent any weather packets the latest 1 day(s).
| Time | Temp. | Humidity | Pressure | Rain* | Wind** | Luminosity | Snow |
|---|---|---|---|---|---|---|---|
| 1778114437 | 17.78° C | 85% | 1012.4 hPa | 0 mm | - | - | - |
| 1778114136 | 17.78° C | 85% | 1012.4 hPa | 0 mm | - | - | - |
| 1778112960 | 18.33° C | 84% | 1012.1 hPa | 0 mm | - | - | - |
| 1778112639 | 18.33° C | 84% | 1012.2 hPa | 0 mm | - | - | - |
| 1778111738 | 18.89° C | 83% | 1012.1 hPa | 0 mm | - | - | - |
| 1778109940 | 20° C | 82% | 1011.7 hPa | 0 mm | - | - | - |
| 1778109349 | 20° C | 81% | 1011.7 hPa | 0 mm | - | - | - |
| 1778108739 | 20° C | 81% | 1011.7 hPa | 0 mm | - | - | - |
| 1778108137 | 20.56° C | 81% | 1011.6 hPa | 0 mm | - | - | - |
| 1778105760 | 21.11° C | 81% | 1011.2 hPa | 0 mm | - | - | - |
| 1778104539 | 21.11° C | 81% | 1010.9 hPa | 0 mm | - | - | - |
| 1778101536 | 23.33° C | 83% | 1010.8 hPa | 0 mm | - | - | - |
| 1778100347 | 23.89° C | 83% | 1010.7 hPa | 0 mm | - | - | - |
| 1778099453 | 23.89° C | 81% | 1010.8 hPa | 0 mm | - | - | - |
| 1778098547 | 24.44° C | 80% | 1010.8 hPa | 0 mm | - | - | - |
| 1778096439 | 23.33° C | 83% | 1010.5 hPa | 0 mm | - | - | - |
| 1778095236 | 22.78° C | 83% | 1010.6 hPa | 0 mm | - | - | - |
| 1778094637 | 22.22° C | 84% | 1010.9 hPa | 0 mm | - | - | - |
| 1778094337 | 21.67° C | 84% | 1010.9 hPa | 0 mm | - | - | - |
| 1778093741 | 21.11° C | 84% | 1011 hPa | 0 mm | - | - | - |
| 1778093156 | 20.56° C | 85% | 1011.2 hPa | 0 mm | - | - | - |
| 1778092539 | 20.56° C | 87% | 1011.3 hPa | 0 mm | - | - | - |
| 1778092261 | 20° C | 87% | 1011.2 hPa | 0 mm | - | - | - |
| 1778091364 | 18.89° C | 88% | 1011.5 hPa | 0 mm | - | - | - |
| 1778090739 | 18.33° C | 88% | 1011.9 hPa | 0 mm | - | - | - |
* Rain latest hour (hover to see other rain measurements)
** Current wind speed in m/s (hover to see current wind gust speed)